STARLINK-1717 (46673 NORAD) Tracking and Keplerian Element Data

This shows tracking and keplerian element data for the satellite.

Feedback or suggestion? Click here.




ElementValue
Catalog46673
NameSTARLINK-1717
Epoch Orbit773
Epoch Day338.83334491
Epoch Year2020
RAAN244.4552
Inclination53.0567
Eccentricity0.0001386
Argument of Perigee66.6026
Mean Anonmoly16.7473
Mean Motion15.20264552
Decay Rate-0.01055653
L11 46673U 20073D 20338.83334491 -.01055653 00000-0 -52435-1 0 9996
L22 46673 53.0567 244.4552 0001386 66.6026 16.7473 15.20264552 7731

Live tracking and technical data element details for STARLINK-1717 (NORAD 46673). STARLINK-1717 can be tracked NOW for your location showing map with azimuth and elevation plus other details from your city location.

Track the satellite on the map from your city or location and see movement details for azimuth, elevation, latitude, longitude, range, height, and movement on the map or in text.







IsCatalogInMostPopularTable: catalog: 46673, numindb: 8
Update: records affected: 1



GetName: 46673 STARLINK-1717

Hit Count: updated at: Sat, 05 Dec 2020 05:43:37 GMT